This demonstration page uses our WeatherBlox Daily Observations layout. Learn more.

40.92945, -100.16068

Hourly Observations for June 12, 2018

Temp ( °F °C ) Dew Point ( °F °C ) Humidity (%) Winds ( mph kmh ) Pressure ( in mb ) Visibility ( mi km ) Precip ( " mm )
12:15 am 00:15 Clear 63 17.1 60 15.4 90 90 Calm 29.88 1012 10 16.0934 0 0
12:35 am 00:35 Clear 63 17 59 15.2 89 89 Calm 29.88 1012 10 16.0934 0 0
12:55 am 00:55 Clear 61 16.1 59 15 93 93 Calm 29.88 1012 10 16.0934 0 0
1:15 am 01:15 Clear 59 15.2 57 14.1 93 93 Calm 29.91 1013 10 16.0934 0 0
1:35 am 01:35 Clear 60 15.5 59 14.9 96 96 Calm 29.91 1013 7 11.26538 0 0
1:55 am 01:55 Clear 59 15.1 58 14.2 94 94 SW 5 7 29.91 1013 10 16.0934 0 0
2:55 am 02:55 Clear 59 14.8 57 13.8 94 94 Calm 29.94 1014 10 16.0934 0 0
3:15 am 03:15 Clear 57 13.8 55 13 95 95 N 3 6 29.94 1014 10 16.0934 0 0
3:35 am 03:35 Clear 57 13.7 55 12.9 95 95 NNE 3 6 29.94 1014 10 16.0934 0 0
3:55 am 03:55 Clear 57 14 56 13.3 96 96 N 5 7 29.91 1013 7 11.26538 0 0
4:15 am 04:15 Clear 56 13.2 55 12.5 96 96 NNE 6 9 29.91 1013 7 11.26538 0 0
4:35 am 04:35 Clear 55 13 54 12.3 96 96 NE 5 7 29.91 1013 7 11.26538 0 0
4:55 am 04:55 Clear 55 12.8 54 12.1 96 96 NE 5 7 29.91 1013 7 11.26538 0 0
5:15 am 05:15 Clear 56 13.5 55 13 97 97 NNE 5 7 29.91 1013 7 11.26538 0 0
5:35 am 05:35 Clear 55 12.9 54 12.2 96 96 Calm 29.91 1013 7 11.26538 0 0
5:55 am 05:55 Clear 55 12.5 53 11.8 96 96 Calm 29.94 1014 10 16.0934 0 0
6:15 am 06:15 Sunny 55 13 54 12.3 96 96 Calm 29.91 1013 7 11.26538 0 0
6:35 am 06:35 Sunny with Mist and Fog 53 11.9 52 11.1 95 95 NE 3 6 29.94 1014 5 8.0467 0 0
6:55 am 06:55 Sunny with Mist and Fog 56 13.2 55 12.6 96 96 Calm 29.91 1013 5 8.0467 0 0
7:15 am 07:15 Sunny 57 13.7 56 13.1 96 96 SE 3 6 29.94 1014 10 16.0934 0 0
7:35 am 07:35 Sunny 61 16 60 15.3 96 96 ENE 6 9 29.94 1014 10 16.0934 0 0
7:55 am 07:55 Sunny 62 16.9 61 15.9 94 94 WNW 3 6 29.91 1013 10 16.0934 0 0
8:15 am 08:15 Sunny 63 17.1 60 15.7 92 92 W 5 7 29.94 1014 7 11.26538 0 0
8:35 am 08:35 Sunny 64 18 61 16.1 89 89 WNW 5 7 29.94 1014 10 16.0934 0 0
8:55 am 08:55 Sunny 66 18.7 62 16.4 87 87 WNW 6 9 29.94 1014 10 16.0934 0 0
9:15 am 09:15 Sunny 67 19.7 62 16.8 83 83 W 6 9 29.97 1015 10 16.0934 0 0
9:35 am 09:35 Sunny 69 20.5 63 17 80 80 WNW 5 7 29.94 1014 10 16.0934 0 0
9:55 am 09:55 Sunny 70 21.3 63 17.4 79 79 NW 6 9 29.94 1014 10 16.0934 0 0
10:15 am 10:15 Sunny 72 22.3 63 17.3 73 73 NW 5 7 29.94 1014 10 16.0934 0 0
10:35 am 10:35 Sunny 74 23.3 63 17.3 69 69 NW 10 17 29.94 1014 10 16.0934 0 0
10:55 am 10:55 Sunny 76 24.2 64 17.5 66 66 WNW 10 17 29.91 1013 10 16.0934 0 0
11:15 am 11:15 Partly Cloudy 76 24.6 64 17.6 65 65 NNW 13 20 29.91 1013 10 16.0934 0 0
11:35 am 11:35 Partly Cloudy 77 24.8 63 17.4 64 64 NW 10 17 29.91 1013 10 16.0934 0 0
11:55 am 11:55 Partly Cloudy 78 25.7 64 17.6 61 61 NNW 9 15 29.91 1013 10 16.0934 0 0
12:15 pm 12:15 Partly Cloudy 78 25.6 63 17.2 60 60 NW 10 17 29.91 1013 10 16.0934 0 0
12:35 pm 12:35 Partly Cloudy 78 25.5 63 17.1 60 60 NNW 9 15 29.91 1013 10 16.0934 0 0
12:55 pm 12:55 Partly Cloudy 79 26.1 63 17.1 58 58 NW 6 9 29.91 1013 10 16.0934 0 0
1:15 pm 13:15 Sunny 80 26.5 63 17.2 57 57 N 6 9 29.91 1013 10 16.0934 0 0
1:35 pm 13:35 Partly Cloudy 79 26.3 63 17 57 57 NNE 3 6 29.91 1013 10 16.0934 0 0
1:55 pm 13:55 Partly Cloudy 81 27 64 17.6 56 56 NW 6 9 29.91 1013 10 16.0934 0 0
2:15 pm 14:15 Partly Cloudy 82 27.5 63 17.2 53 53 NNW 3 6 29.85 1011 10 16.0934 0 0
2:35 pm 14:35 Partly Cloudy 82 27.8 61 16.3 50 50 NE 3 6 29.85 1011 10 16.0934 0 0
2:55 pm 14:55 Mostly Cloudy 83 28.1 62 16.8 50 50 NW 5 7 29.85 1011 10 16.0934 0 0
3:15 pm 15:15 Partly Cloudy 83 28.2 60 15.5 46 46 Calm 29.85 1011 10 16.0934 0 0
3:35 pm 15:35 Sunny 84 28.7 61 16.3 47 47 N 5 7 29.85 1011 10 16.0934 0 0
3:55 pm 15:55 Sunny 84 28.8 60 15.7 45 45 Calm 29.85 1011 10 16.0934 0 0
4:15 pm 16:15 Sunny 84 29.1 61 16 45 45 ENE 5 7 29.85 1011 10 16.0934 0 0
4:35 pm 16:35 Sunny 84 29 59 15 43 43 Calm 29.83 1010 10 16.0934 0 0
4:55 pm 16:55 Sunny 85 29.4 62 16.4 45 45 NE 5 7 29.85 1011 10 16.0934 0 0
5:15 pm 17:15 Sunny 85 29.3 61 16 45 45 NNW 3 6 29.83 1010 10 16.0934 0 0
5:35 pm 17:35 Sunny 85 29.3 60 15.8 44 44 E 5 7 29.83 1010 10 16.0934 0 0
5:55 pm 17:55 Sunny 85 29.6 61 16.3 45 45 E 3 6 29.83 1010 10 16.0934 0 0
6:15 pm 18:15 Partly Cloudy 84 28.8 62 16.8 48 48 E 10 17 29.83 1010 10 16.0934 0 0
6:35 pm 18:35 Partly Cloudy 84 28.7 62 16.6 48 48 ENE 7 11 29.83 1010 10 16.0934 0 0
6:55 pm 18:55 Sunny 83 28.1 63 17 51 51 ENE 8 13 29.83 1010 10 16.0934 0 0
7:15 pm 19:15 Sunny 82 27.9 63 17.1 52 52 E 9 15 29.83 1010 10 16.0934 0 0
7:35 pm 19:35 Sunny 81 27.4 62 16.8 52 52 E 7 11 29.83 1010 10 16.0934 0 0
7:55 pm 19:55 Sunny 80 26.7 63 17.2 56 56 ENE 9 15 29.83 1010 10 16.0934 0 0
8:15 pm 20:15 Sunny 79 26 63 17 58 58 ENE 10 17 29.85 1011 10 16.0934 0 0
8:35 pm 20:35 Sunny 77 25 62 16.9 61 61 NE 9 15 29.85 1011 10 16.0934 0 0
8:55 pm 20:55 Sunny 75 24.1 63 17 65 65 NE 8 13 29.88 1012 10 16.0934 0 0
9:15 pm 21:15 Clear 74 23.3 63 17 68 68 NE 7 11 29.91 1013 10 16.0934 0 0
9:35 pm 21:35 Clear 73 22.9 63 17 69 69 ENE 9 15 29.94 1014 10 16.0934 0 0
9:55 pm 21:55 Partly Cloudy 73 22.5 63 17.1 72 72 NE 10 17 29.94 1014 10 16.0934 0 0
10:15 pm 22:15 Cloudy 73 22.7 62 16.9 70 70 ENE 15 24 29.94 1014 10 16.0934 0 0
10:35 pm 22:35 Mostly Cloudy 71 21.9 63 17 74 74 ENE 12 19 29.97 1015 10 16.0934 0 0
10:55 pm 22:55 Partly Cloudy 70 21.1 62 16.9 77 77 ENE 10 17 29.97 1015 10 16.0934 0 0
11:15 pm 23:15 Clear 69 20.7 62 16.7 78 78 ENE 10 17 29.97 1015 10 16.0934 0 0
11:35 pm 23:35 Clear 69 20.3 62 16.6 79 79 ENE 12 19 30 1016 10 16.0934 0 0
11:55 pm 23:55 Clear 68 19.8 62 16.5 81 81 ENE 9 15 30 1016 10 16.0934 0 0

Powered by AerisWeather